This demonstration page uses our WeatherBlox Daily Observations layout. Learn more.

Hourly Observations for February 26, 2020

Temp ( °F °C ) Dew Point ( °F °C ) Humidity (%) Winds ( mph kmh ) Pressure ( in mb ) Visibility ( mi km ) Precip ( " mm )
12:46 am 00:46 Cloudy 38 3.3 37 2.8 97 97 N 3 6 29.93 1013 7 11.26538 0 0
12:53 am 00:53 Cloudy 38 3.3 37 2.8 97 97 N 5 7 29.91 1013 7 11.26538 0 0
1:01 am 01:01 Cloudy with Mist and Fog 38 3.3 37 2.8 97 97 N 5 7 29.93 1013 6 9.65604 0 0
1:53 am 01:53 Cloudy with Mist and Fog 38 3.3 37 2.8 97 97 N 7 11 29.9 1012 3 4.82802 0 0
2:27 am 02:27 Cloudy with Mist and Fog 38 3.3 37 2.8 97 97 Calm 29.93 1013 3 4.82802 0 0
2:40 am 02:40 Cloudy with Mist and Fog 38 3.3 37 2.8 97 97 N 6 9 29.93 1013 2.5 4.02335 0 0
2:53 am 02:53 Cloudy with Mist and Fog 37 2.8 37 2.8 100 100 VRB 5 7 29.9 1013 2 3.21868 0 0
3:25 am 03:25 Cloudy with Mist and Fog 37 2.8 36 2.2 96 96 NNW 5 7 29.92 1013 1.75 2.816345 0 0
3:53 am 03:53 Cloudy with Mist and Fog 37 2.8 36 2.2 96 96 N 5 7 29.9 1012 1.75 2.816345 0 0
4:03 am 04:03 Cloudy with Mist and Fog 37 2.8 36 2.2 96 96 N 3 6 29.92 1013 2 3.21868 0 0
4:53 am 04:53 Cloudy with Mist and Fog 37 2.8 36 2.2 96 96 NNE 7 11 29.89 1012 4 6.43736 0 0
5:26 am 05:26 Cloudy with Mist and Fog 37 2.8 36 2.2 96 96 N 5 7 29.92 1013 3 4.82802 0 0
5:53 am 05:53 Cloudy with Mist and Fog 37 2.8 36 2.2 96 96 N 6 9 29.88 1012 4 6.43736 0 0
6:09 am 06:09 Cloudy with Mist and Fog 37 2.8 36 2.2 96 96 NNE 6 9 29.9 1012 4 6.43736 0 0
6:50 am 06:50 Cloudy with Mist and Fog 37 3 36 2 93 93 Calm 29.91 1013 2.5 4.02335 0 0
6:53 am 06:53 Cloudy with Mist and Fog 36 2.2 36 2.2 100 100 N 3 6 29.89 1012 2.5 4.02335 0 0
7:37 am 07:37 Cloudy with Mist and Fog 36 2.2 35 1.7 97 97 NNW 5 7 29.92 1013 1.5 2.41401 0 0
7:53 am 07:53 Cloudy with Mist and Fog 36 2.2 36 2.2 100 100 N 3 6 29.89 1012 1.5 2.41401 0 0
8:10 am 08:10 Cloudy with Mist and Fog 36 2.2 35 1.7 97 97 NE 3 6 29.91 1013 1.75 2.816345 0 0
8:24 am 08:24 Cloudy with Mist and Fog 36 2.2 35 1.7 97 97 Calm 29.91 1013 2 3.21868 0 0
8:43 am 08:43 Cloudy with Mist and Fog 36 2.2 35 1.7 97 97 N 3 6 29.91 1013 1.75 2.816345 0 0
8:53 am 08:53 Cloudy with Light Rain 36 2.2 35 1.7 97 97 N 3 6 29.89 1012 1.5 2.41401 0.001 0.001
9:25 am 09:25 Cloudy with Light Rain 36 2.2 36 2.2 100 100 N 3 6 29.9 1012 2 3.21868 0.001 0.001
9:53 am 09:53 Cloudy with Light Rain 37 2.8 36 2.2 96 96 N 5 7 29.87 1012 2.5 4.02335 0.01 0.254
10:05 am 10:05 Cloudy with Light Rain 37 2.8 36 2.2 96 96 N 6 9 29.88 1012 3 4.82802 0.001 0.001
10:53 am 10:53 Cloudy with Light Rain 36 2.2 35 1.7 97 97 NNW 7 11 29.84 1011 5 8.0467 0.02 0.508
11:13 am 11:13 Cloudy with Light Rain 36 2.2 34 1.1 93 93 NW 5 7 29.88 1012 5 8.0467 0.01 0.254
11:34 am 11:34 Cloudy with Light Snow 34 1.1 33 0.6 97 97 NW 6 9 29.87 1012 1.75 2.816345 0.03 0.762
11:38 am 11:38 Cloudy with Light Snow 34 1.1 33 0.6 97 97 NW 5 7 29.87 1012 1.5 2.41401 0.03 0.762
11:53 am 11:53 Cloudy with Light Snow 33 0.6 33 0.6 100 100 W 5 7 29.86 1011 1 1.60934 0.05 1.27
12:00 pm 12:00 Cloudy with Light Snow 33 0.6 32 0 96 96 WNW 6 9 29.87 1012 0.75 1.207005 0.01 0.254
12:09 pm 12:09 Cloudy with Light Snow 33 0.6 32 0 96 96 W 5 7 29.88 1012 0.75 1.207005 0.02 0.508
12:29 pm 12:29 Cloudy with Light Snow 33 0.6 32 0 96 96 WNW 6 9 29.87 1012 1 1.60934 0.03 0.762
12:53 pm 12:53 Cloudy with Light Snow 34 1.1 33 0.6 97 97 WNW 7 11 29.85 1011 1.75 2.816345 0.04 1.016
1:03 pm 13:03 Cloudy with Light Snow 34 1.1 33 0.6 97 97 WNW 8 13 29.86 1011 1.75 2.816345 0.01 0.254
1:11 pm 13:11 Cloudy with Light Snow 35 1.7 33 0.6 93 93 NW 7 11 29.86 1011 2 3.21868 0.01 0.254
1:28 pm 13:28 Cloudy with Light Snow 35 1.7 34 1.1 96 96 NW 8 13 29.84 1010 4 6.43736 0.02 0.508
1:53 pm 13:53 Cloudy with Light Snow 35 1.7 33 0.6 93 93 WNW 10 17 29.83 1010 5 8.0467 0.02 0.508
2:40 pm 14:40 Cloudy with Light Snow 34 1.1 32 0 92 92 WNW 12 19 29.85 1011 1.75 2.816345 0.02 0.508
2:42 pm 14:42 Cloudy with Light Snow 34 1.1 32 0 92 92 WNW 12 19 29.85 1011 1.5 2.41401 0.02 0.508
2:50 pm 14:50 Cloudy with Light Snow 36 2 34 1 93 93 WNW 12 19 29.85 1011 1.75 2.816345 0.02 0.508
2:53 pm 14:53 Cloudy with Light Snow 35 1.7 33 0.6 93 93 WNW 10 17 29.83 1010 2.5 4.02335 0.02 0.508
3:08 pm 15:08 Cloudy with Light Snow 35 1.7 32 0 89 89 WNW 9 15 29.85 1011 3 4.82802 0.01 0.254
3:11 pm 15:11 Cloudy with Light Snow 35 1.7 32 0 89 89 WNW 16 26 29.86 1011 2.5 4.02335 0.01 0.254
3:18 pm 15:18 Cloudy with Light Snow 34 1.1 31 -0.6 89 89 WNW 15 24 29.86 1011 1.75 2.816345 0.01 0.254
3:25 pm 15:25 Cloudy with Light Snow 34 1.1 31 -0.6 89 89 WNW 15 24 29.86 1011 1.25 2.011675 0.01 0.254
3:30 pm 15:30 Cloudy with Light Snow 34 1.1 32 0 92 92 WNW 10 17 29.87 1012 2 3.21868 0.01 0.254
3:38 pm 15:38 Cloudy with Light Snow 35 1.7 33 0.6 93 93 WNW 12 19 29.87 1011 5 8.0467 0.01 0.254
3:53 pm 15:53 Cloudy with Light Snow 35 1.7 32 0 89 89 WNW 10 17 29.86 1011 5 8.0467 0.01 0.254
4:03 pm 16:03 Cloudy 34 1.1 31 -0.6 89 89 WNW 13 20 29.88 1012 9 14.48406 0.001 0.001
4:35 pm 16:35 Cloudy with Light Snow 34 1.1 31 -0.6 89 89 W 14 22 29.89 1012 3 4.82802 0.001 0.001
4:53 pm 16:53 Cloudy with Light Snow 34 1.1 31 -0.6 89 89 WNW 10 17 29.88 1012 6 9.65604 0.001 0.001
5:53 pm 17:53 Cloudy with Mist and Fog 32 0 29 -1.7 88 88 WNW 10 17 29.91 1013 6 9.65604 0.001 0.001
6:04 pm 18:04 Cloudy with Light Snow 32 0 29 -1.7 88 88 W 10 17 29.93 1014 1.75 2.816345 0.001 0.001
6:12 pm 18:12 Cloudy with Light Snow 32 0 28 -2.2 85 85 W 12 19 29.93 1014 1.25 2.011675 0.001 0.001
6:21 pm 18:21 Cloudy with Light Snow 32 0 28 -2.2 85 85 W 10 17 29.94 1014 2 3.21868 0.001 0.001
6:27 pm 18:27 Cloudy with Light Snow 31 -0.6 28 -2.2 89 89 WNW 12 19 29.94 1014 1.75 2.816345 0.001 0.001
6:31 pm 18:31 Cloudy with Light Snow 31 -0.6 28 -2.2 89 89 W 13 20 29.94 1014 2 3.21868 0.001 0.001
6:42 pm 18:42 Cloudy 31 -0.6 27 -2.8 85 85 WNW 12 19 29.95 1014 7 11.26538 0.001 0.001
6:53 pm 18:53 Cloudy 31 -0.6 28 -2.2 89 89 WNW 13 20 29.94 1014 7 11.26538 0.001 0.001
7:36 pm 19:36 Cloudy with Light Snow 31 -0.6 27 -2.8 85 85 WNW 15 24 29.99 1015 3 4.82802 0.001 0.001
7:45 pm 19:45 Cloudy with Light Snow 30 -1.1 27 -2.8 88 88 WNW 14 22 29.99 1015 4 6.43736 0.001 0.001
7:53 pm 19:53 Cloudy with Light Snow 30 -1.1 26 -3.3 85 85 WNW 16 26 29.97 1015 5 8.0467 0.001 0.001
8:05 pm 20:05 Windy with Snow Likely 30 -1.1 25 -3.9 82 82 WNW 21 33 30 1016 5 8.0467 0.001 0.001
8:53 pm 20:53 Cloudy with Light Snow 30 -1.1 26 -3.3 85 85 WNW 13 20 29.99 1016 5 8.0467 0.001 0.001
9:04 pm 21:04 Cloudy with Light Snow 30 -1.1 26 -3.3 85 85 WNW 12 19 30.02 1016 3 4.82802 0.001 0.001
9:15 pm 21:15 Cloudy with Light Snow 30 -1.1 27 -2.8 88 88 W 9 15 30.02 1016 2.5 4.02335 0.001 0.001
9:22 pm 21:22 Cloudy with Light Snow 30 -1.1 26 -3.3 85 85 WNW 12 19 30.03 1017 5 8.0467 0.001 0.001
9:53 pm 21:53 Cloudy 29 -1.7 24 -4.4 82 82 WNW 18 30 30.02 1017 10 16.0934 0.001 0.001
10:53 pm 22:53 Cloudy with Light Snow 30 -1.1 25 -3.9 82 82 W 13 20 30.03 1017 8 12.87472 0.001 0.001
11:32 pm 23:32 Cloudy with Light Snow 29 -1.7 23 -5 78 78 WNW 18 30 30.07 1018 5 8.0467 0.001 0.001
11:53 pm 23:53 Cloudy with Light Snow 29 -1.7 23 -5 78 78 WNW 16 26 30.04 1017 5 8.0467 0.001 0.001

Powered by AerisWeather